Find Starlink 30767

NORAD ID: 58126 Int'l Des: 2023-162 Owner: SPXS Country: US Constellation: starlink operational
LEOCIRCULAR

当前视图

正在加载3D地球...

关于 Starlink 30767

正在加载描述...

即将过境

Passes for default location (London). Set your location on the main map for personalized predictions.

高度历史

Loading altitude history...

两行轨道根数

1 58126U 23162J 26146.42653160 .00001214 00000-0 53648-4 0 9990
2 58126 43.0053 50.2620 0001213 272.2189 87.8524 15.27576193144236
Epoch: May 26, 2026 • Age: 13 hours

当前状态

高度 485.1 km
速度 7.63 km/s
星下点 34.21°N, 53.83°W
发射日期 Oct 22, 2023
运行时间 2.5 years
类型 internet

技术详情

分类 Payload
质量 730.00 kg
干质量 700.00 kg
总质量 730.00 kg
长度 0.30 m
直径 4.10 m
跨度 29.00 m
形状 Box + pan
制造商 SPXS
平台类型 Starlink V2M
阶段状态 In Orbit
所有者/国家 SPXS/US

Most Searched